15min,AgWx,beryljct,423,25FEB2021:00:00:00,29.6,12.77,26.0,26.2,26.4,26.8,25.9,52,53,51,0.250,11.0,11.2,10.9,9.16,11.2,28,7.5,15.3,0.00022,0.00025,36.9,37.9,12,0,0,.,7.15,0.00,0.00
15min,AgWx,beryljct,423,25FEB2021:00:15:00,28.9,12.75,26.1,25.7,25.7,26.1,25.4,52,53,51,0.241,10.5,10.9,10.1,10.68,11.3,25,8.4,15.1,0.00021,0.00024,36.7,37.9,12,0,0,.,7.14,0.00,0.00
15min,AgWx,beryljct,423,25FEB2021:00:30:00,28.2,12.74,25.9,25.5,25.6,25.8,25.4,50,51,50,0.233,9.6,10.1,9.4,8.09,9.7,14,9.8,14.0,0.00020,0.00024,36.6,37.8,12,0,0,.,7.14,0.00,0.00
15min,AgWx,beryljct,423,25FEB2021:00:45:00,27.8,12.75,25.4,25.4,25.5,25.7,25.4,49,50,48,0.226,9.2,9.4,8.6,7.629,10.6,7.5,7.7,13.8,0.00022,0.00025,36.4,37.8,12,0,0,.,7.14,0.00,0.00
15min,AgWx,beryljct,423,25FEB2021:01:00:00,27.4,12.73,24.4,23.9,24.9,25.4,23.9,50,54,48,0.236,8.9,9.6,8.4,7.607,9.0,5.6,7.7,13.9,0.00019,0.00023,36.2,37.8,12,0,0,.,7.14,0.00,0.00
15min,AgWx,beryljct,423,25FEB2021:01:15:00,26.7,12.72,23.5,23.1,23.5,24.0,23.1,56,57,54,0.241,10.0,10.2,9.6,9.34,8.4,357,6.6,10.1,0.00016,0.00019,36.1,37.8,12,0,0,.,7.15,0.00,0.00
15min,AgWx,beryljct,423,25FEB2021:01:30:00,25.9,12.71,22.9,22.5,22.5,23.1,22.1,58,59,57,0.242,10.1,10.3,9.9,9.62,8.2,358,6.6,12.0,0.00014,0.00016,36.0,37.8,12,0,0,.,7.14,0.00,0.00
15min,AgWx,beryljct,423,25FEB2021:01:45:00,25.3,12.72,22.8,22.5,22.7,22.9,22.4,59,59,59,0.245,10.4,10.6,10.1,7.87,9.7,3.4,7.9,12.0,0.00015,0.00017,35.9,37.7,12,0,0,.,7.14,0.00,0.00
15min,AgWx,beryljct,423,25FEB2021:02:00:00,24.9,12.71,22.6,22.3,22.3,22.5,22.0,60,61,59,0.247,10.5,10.7,10.4,10.02,9.0,6.7,7.6,12.3,0.00014,0.00016,35.8,37.7,12,0,0,.,7.15,0.00,0.00
15min,AgWx,beryljct,423,25FEB2021:02:15:00,24.5,12.7,22.2,21.9,22.1,22.4,21.9,61,61,60,0.246,10.6,10.7,10.4,6.248,8.7,6.8,13,12.0,0.00013,0.00016,35.6,37.7,12,0,0,.,7.14,0.00,0.00
15min,AgWx,beryljct,423,25FEB2021:02:30:00,23.9,12.68,20.1,19.0,20.6,22.0,19.0,63,66,61,0.235,10.0,10.7,9.1,3.047,5.1,35,21,8.9,0.00008,0.00010,35.5,37.6,12,0,0,.,7.15,0.00,0.00
15min,AgWx,beryljct,423,25FEB2021:02:45:00,22.8,12.68,20.4,19.4,19.2,20.2,18.5,66,67,63,0.230,9.6,10.2,8.8,4.845,4.7,14,12,6.8,0.00006,0.00008,35.5,37.6,12,0,0,.,7.14,0.00,0.00
15min,AgWx,beryljct,423,25FEB2021:03:00:00,22.0,12.65,19.1,18.8,19.3,20.0,18.5,64,66,63,0.233,9.2,9.9,8.4,3.683,4.1,23,35,5.8,0.00006,0.00008,35.4,37.5,12,0,0,.,7.14,0.00,0.00
15min,AgWx,beryljct,423,25FEB2021:03:15:00,21.3,12.65,19.7,19.3,18.7,19.3,18.2,68,69,66,0.249,9.9,10.9,8.9,7.804,6.1,54,7.7,8.8,0.00007,0.00009,35.3,37.5,12,0,0,.,7.14,0.00,0.00
15min,AgWx,beryljct,423,25FEB2021:03:30:00,21.1,12.65,19.5,19.0,19.2,19.6,18.9,70,71,69,0.251,11.0,11.4,10.7,8.02,7.7,53,7.4,11.1,0.00008,0.00009,35.2,37.5,12,0,0,.,7.15,0.00,0.00
15min,AgWx,beryljct,423,25FEB2021:03:45:00,20.7,12.64,19.0,18.3,18.4,19.0,18.0,72,73,71,0.253,10.9,11.2,10.8,8.68,7.5,50,7.3,10.0,0.00007,0.00008,35.1,37.4,12,0,0,.,7.15,0.00,0.00
15min,AgWx,beryljct,423,25FEB2021:04:00:00,20.4,12.63,18.3,17.8,18.2,18.6,17.8,73,73,72,0.245,10.9,11.4,10.5,5.13,6.2,30,6.4,9.1,0.00006,0.00007,35.0,37.4,12,0,0,.,7.15,0.00,0.00
15min,AgWx,beryljct,423,25FEB2021:04:15:00,19.9,12.6,16.0,15.7,17.3,18.4,15.7,73,75,71,0.230,10.0,10.9,8.9,5.152,4.1,349,22,5.6,0.00004,0.00005,34.9,37.4,12,0,0,.,7.15,0.00,0.00
15min,AgWx,beryljct,423,25FEB2021:04:30:00,19.1,12.6,16.8,16.0,16.1,16.7,15.5,75,76,74,0.233,9.5,10.2,9.0,6.138,5.0,316,5.9,6.2,0.00004,0.00005,34.8,37.3,12,0,0,.,7.15,0.00,0.00
15min,AgWx,beryljct,423,25FEB2021:04:45:00,18.7,12.58,19.0,18.5,17.0,18.5,16.0,74,75,72,0.249,10.2,11.4,9.4,6.445,6.2,341,15,8.7,0.00005,0.00006,34.7,37.3,12,0,0,.,7.15,0.00,0.00
15min,AgWx,beryljct,423,25FEB2021:05:00:00,18.6,12.58,16.8,16.7,17.7,18.6,16.6,72,73,70,0.234,10.1,10.9,8.7,3.244,4.7,341,18,6.5,0.00005,0.00006,34.7,37.2,12,0,0,.,7.15,0.00,0.00
15min,AgWx,beryljct,423,25FEB2021:05:15:00,18.1,12.58,17.0,16.2,16.0,16.6,15.2,73,75,72,0.236,9.0,9.7,8.1,3.551,3.8,315,9.1,4.5,0.00003,0.00004,34.6,37.2,12,0,0,.,7.15,0.00,0.00
15min,AgWx,beryljct,423,25FEB2021:05:30:00,17.5,12.57,17.6,16.6,16.2,16.6,15.4,74,75,73,0.241,9.3,10.1,8.6,3.047,3.3,339,13,4.3,0.00002,0.00003,34.5,37.2,12,0,0,.,7.15,0.00,0.00
15min,AgWx,beryljct,423,25FEB2021:05:45:00,17.1,12.56,18.2,17.7,17.0,17.7,16.6,73,75,72,0.242,9.9,10.3,9.4,1.71,2.2,12,9.7,3.6,0.00000,0.00001,34.4,37.1,12,0,0,.,7.15,0.00,0.00
15min,AgWx,beryljct,423,25FEB2021:06:00:00,16.8,12.55,16.6,17.0,17.6,18.2,17.0,72,72,70,0.231,10.0,10.6,9.1,2.499,1.0,15,24,2.9,-0.00003,-0.00003,34.4,37.1,12,0,0,.,7.15,0.00,0.00
15min,AgWx,beryljct,423,25FEB2021:06:15:00,16.6,12.55,18.3,17.7,17.1,17.8,15.9,72,74,70,0.241,9.7,10.5,8.2,4.165,3.9,328,20,5.6,0.00003,0.00005,34.3,37.0,12,0,0,.,7.16,0.00,0.00
15min,AgWx,beryljct,423,25FEB2021:06:30:00,16.6,12.54,17.4,16.7,17.0,17.9,16.0,72,74,71,0.234,9.6,10.4,8.6,5.963,5.5,351,4.1,6.5,0.00014,0.00025,34.2,37.0,12,0,0,.,7.15,0.00,0.00
15min,AgWx,beryljct,423,25FEB2021:06:45:00,16.6,12.54,13.1,12.8,14.4,17.0,12.2,75,80,72,0.216,7.9,9.9,6.3,6.314,6.5,338,11,7.5,0.00014,0.00023,34.2,36.9,12,0,0,.,7.15,0.00,0.00
15min,AgWx,beryljct,423,25FEB2021:07:00:00,16.0,12.54,15.9,14.7,13.6,14.7,12.6,79,80,78,0.233,8.3,9.4,7.5,5.59,5.3,345,4.8,6.6,0.00010,0.00017,34.1,36.9,12,0,0,.,7.15,0.00,0.00
15min,AgWx,beryljct,423,25FEB2021:07:15:00,15.6,12.53,16.7,15.3,14.1,15.3,13.3,78,79,76,0.240,8.4,10.0,7.6,8.07,5.4,347,6.0,8.3,0.00011,0.00019,34.0,36.8,12,4,0,.,7.15,0.00,0.00
15min,AgWx,beryljct,423,25FEB2021:07:30:00,15.8,12.63,17.0,16.5,16.5,16.9,15.4,75,79,74,0.242,10.0,10.3,9.7,6.686,7.1,12,14,9.5,0.00021,0.00032,33.9,36.8,12,28,0,.,7.16,0.00,0.00
15min,AgWx,beryljct,423,25FEB2021:07:45:00,16.6,12.85,16.9,16.4,16.3,16.4,16.2,77,77,76,0.245,10.3,10.6,10.0,4.034,4.6,48,8.4,6.2,0.00026,0.00034,33.9,36.8,12,75,0,.,7.15,0.00,0.00
15min,AgWx,beryljct,423,25FEB2021:08:00:00,17.7,13.16,19.3,18.6,17.4,18.6,16.4,77,77,75,0.262,11.3,12.0,10.5,6.05,5.2,42,8.1,7.9,0.00034,0.00044,33.8,36.7,12,118,0,.,7.15,0.00,0.00
15min,AgWx,beryljct,423,25FEB2021:08:15:00,19.3,13.81,20.4,19.9,19.2,19.9,18.6,73,75,71,0.262,12.1,12.5,11.8,8.15,7.1,40,6.4,8.8,0.00047,0.00062,33.7,36.7,12,163,0,.,7.15,0.00,0.00
15min,AgWx,beryljct,423,25FEB2021:08:30:00,21.2,14.92,21.4,21.1,20.7,21.3,19.9,70,72,68,0.265,12.4,13.0,12.0,10.37,7.6,50,8.4,11.2,0.00061,0.00080,33.7,36.6,12,212,0,.,7.15,0.00,0.00
15min,AgWx,beryljct,423,25FEB2021:08:45:00,23.0,14.9,22.6,22.3,21.6,22.3,20.8,67,68,65,0.265,12.3,13.1,11.6,10.02,8.9,40,11,10.8,0.00075,0.00098,33.6,36.6,12,262,0,.,7.15,0.00,0.00
15min,AgWx,beryljct,423,25FEB2021:09:00:00,24.6,14.81,23.5,23.0,22.6,23.1,22.2,64,65,62,0.265,12.1,13.0,11.4,8.51,8.3,33,10,11.3,0.00090,0.00116,33.6,36.6,12,312,0,.,7.15,0.00,0.00
15min,AgWx,beryljct,423,25FEB2021:09:15:00,26.2,14.88,25.1,23.5,23.5,24.3,22.5,61,63,59,0.255,12.1,13.0,11.1,4.801,7.2,31,14,10.3,0.00105,0.00132,33.5,36.5,12,361,0,.,7.15,0.00,0.00
15min,AgWx,beryljct,423,25FEB2021:09:30:00,27.7,14.79,23.5,24.0,23.8,24.5,23.4,59,60,58,0.257,11.5,12.5,11.0,3.683,6.8,30,14,9.1,0.00119,0.00147,33.5,36.5,12,408,0,.,7.15,0.00,0.00
15min,AgWx,beryljct,423,25FEB2021:09:45:00,29.3,14.78,27.0,26.4,25.2,26.6,23.8,56,60,53,0.257,11.9,13.1,10.8,12.43,7.3,51,18,13.3,0.00137,0.00169,33.4,36.4,12,457,0,.,7.15,0.00,0.00
15min,AgWx,beryljct,423,25FEB2021:10:00:00,30.8,14.75,28.2,29.2,27.1,29.2,25.9,51,53,47,0.262,11.2,12.1,10.1,11.31,9.4,40,15,14.4,0.00158,0.00201,33.3,36.4,12,499,0,.,7.15,0.00,0.00
15min,AgWx,beryljct,423,25FEB2021:10:15:00,32.2,14.74,29.8,29.5,29.1,30.1,28.4,45,47,43,0.237,10.4,11.5,9.7,16.49,13.9,49,10,17.7,0.00180,0.00241,33.3,36.4,12,541,0,.,7.15,0.00,0.00
15min,AgWx,beryljct,423,25FEB2021:10:30:00,33.4,14.33,29.6,30.7,30.3,31.5,29.1,42,44,40,0.233,9.8,12.0,8.3,16.62,13.6,42,11,20.1,0.00199,0.00265,33.3,36.3,12,577,0,.,7.15,0.00,0.00
15min,AgWx,beryljct,423,25FEB2021:10:45:00,34.3,14.3,32.0,31.9,30.8,32.7,29.7,40,43,36,0.236,9.2,11.4,7.3,18.2,13.4,44,17,20.1,0.00213,0.00282,33.3,36.3,12,612,0,.,7.15,0.00,0.00
15min,AgWx,beryljct,423,25FEB2021:11:00:00,35.2,14.28,33.3,31.5,31.1,31.8,30.3,39,41,37,0.232,8.8,10.4,7.4,10.24,15.0,48,13,19.0,0.00222,0.00297,33.2,36.3,12,644,0,.,7.14,0.00,0.00
15min,AgWx,beryljct,423,25FEB2021:11:15:00,35.8,14.28,32.9,32.0,31.9,33.1,30.9,37,39,36,0.226,8.6,9.7,7.2,18.39,16.3,52,10,21.5,0.00234,0.00315,33.2,36.2,12,672,0,.,7.14,0.00,0.00
15min,AgWx,beryljct,423,25FEB2021:11:30:00,36.4,14.27,33.4,32.8,32.3,33.3,31.4,35,37,32,0.210,7.5,9.1,6.3,17.16,16.4,46,9.9,22.8,0.00245,0.00331,33.2,36.2,12,696,0,.,7.15,0.00,0.00
15min,AgWx,beryljct,423,25FEB2021:11:45:00,36.9,14.27,34.1,33.3,33.0,33.7,31.9,34,35,32,0.217,7.5,8.8,6.3,17.89,17.1,43,15,22.8,0.00255,0.00346,33.2,36.1,12,716,0,.,7.14,0.00,0.00
15min,AgWx,beryljct,423,25FEB2021:12:00:00,37.5,14.27,34.2,34.2,33.7,35.3,33.0,33,34,32,0.214,7.7,9.5,6.8,17.6,17.9,41,11,22.5,0.00264,0.00358,33.2,36.1,12,732,0,.,7.14,0.00,0.00
15min,AgWx,beryljct,423,25FEB2021:12:15:00,38.2,14.24,35.4,35.4,34.9,35.8,33.5,32,33,31,0.219,7.9,9.0,6.7,21.53,17.1,38,13,23.7,0.00278,0.00377,33.2,36.1,12,745,0,.,7.14,0.00,0.00
15min,AgWx,beryljct,423,25FEB2021:12:30:00,38.9,14.22,35.8,36.1,35.3,36.2,34.4,30,32,28,0.203,7.0,8.5,5.0,15.96,16.2,43,12,21.6,0.00286,0.00386,33.2,36.0,12,754,0,.,7.14,0.00,0.00
15min,AgWx,beryljct,423,25FEB2021:12:45:00,39.5,14.22,37.4,36.1,35.6,37.0,34.6,29,30,28,0.217,6.5,8.2,4.9,13.31,13.6,58,13,21.8,0.00293,0.00388,33.2,36.0,12,758,0,.,7.13,0.00,0.00
15min,AgWx,beryljct,423,25FEB2021:13:00:00,40.1,14.17,36.0,37.5,36.0,37.5,35.0,27,30,25,0.205,5.5,7.8,3.5,17.84,13.3,53,14,19.1,0.00299,0.00396,33.2,36.0,12,759,0,.,7.13,0.00,0.00
15min,AgWx,beryljct,423,25FEB2021:13:15:00,40.8,14.18,36.2,36.8,36.6,37.9,35.4,25,28,23,0.200,4.2,6.6,2.0,9.58,12.0,55,16,16.6,0.00307,0.00403,33.2,35.9,12,756,0,.,7.13,0.00,0.00
15min,AgWx,beryljct,423,25FEB2021:13:30:00,41.4,14.14,35.6,37.1,36.6,37.6,35.8,23,27,21,0.161,2.4,5.5,0.4,13.85,12.4,37,15,17.5,0.00307,0.00407,33.3,35.9,12,749,0,.,7.13,0.00,0.00
15min,AgWx,beryljct,423,25FEB2021:13:45:00,41.9,14.14,37.9,37.5,37.0,37.9,36.2,21,23,20,0.172,0.9,2.7,-0.6,10.24,10.9,48,19,17.4,0.00309,0.00405,33.4,35.9,12,738,0,.,7.13,0.00,0.00
15min,AgWx,beryljct,423,25FEB2021:14:00:00,42.5,14.18,37.3,37.9,37.6,38.8,36.3,21,23,18,0.152,0.9,3.6,-1.8,11.55,10.7,36,20,18.4,0.00309,0.00406,33.7,35.9,12,722,0,.,7.12,0.00,0.00
15min,AgWx,beryljct,423,25FEB2021:14:15:00,43.2,14.1,37.5,37.4,37.7,39.3,36.1,21,23,19,0.148,1.4,3.4,-0.8,13.9,12.5,38,15,19.7,0.00304,0.00409,34.1,35.8,12,702,0,.,7.13,0.00,0.00
15min,AgWx,beryljct,423,25FEB2021:14:30:00,43.6,14.07,38.3,39.0,38.1,39.2,37.0,21,22,20,0.170,1.5,3.0,-0.6,11,12.1,46,16,18.2,0.00300,0.00404,34.6,35.8,12,679,0,.,7.12,0.00,0.00
15min,AgWx,beryljct,423,25FEB2021:14:45:00,43.9,14.1,39.8,38.9,38.5,39.6,37.3,20,21,19,0.159,1.1,3.0,-1.3,8.37,11.7,44,25,18.2,0.00291,0.00395,35.0,35.8,12,638,0,.,7.12,0.00,0.00
15min,AgWx,beryljct,423,25FEB2021:15:00:00,44.3,14.07,39.5,38.3,38.3,39.3,37.3,20,21,19,0.152,0.3,2.6,-1.4,10.46,10.9,45,14,17.9,0.00283,0.00382,35.5,35.8,12,621,0,.,7.12,0.00,0.00
15min,AgWx,beryljct,423,25FEB2021:15:15:00,44.5,14.07,39.6,37.9,38.4,39.2,37.7,19,20,18,0.143,-0.4,1.5,-1.5,6.292,10.3,53,14,15.2,0.00271,0.00368,35.9,35.8,12,582,0,.,7.11,0.00,0.00
15min,AgWx,beryljct,423,25FEB2021:15:30:00,44.8,14.13,39.3,39.9,38.8,40.5,37.7,19,19,17,0.146,-0.5,0.7,-1.6,12.63,9.7,57,20,14.7,0.00259,0.00353,36.4,35.8,12,547,0,.,7.11,0.00,0.00
15min,AgWx,beryljct,423,25FEB2021:15:45:00,45.1,14.02,39.4,38.3,38.9,39.9,38.3,18,19,17,0.137,-1.4,0.4,-2.7,7.738,10.2,48,16,16.0,0.00252,0.00350,36.8,35.8,12,511,0,.,7.11,0.00,0.00
15min,AgWx,beryljct,423,25FEB2021:16:00:00,45.2,14.1,40.7,39.1,38.8,39.6,38.2,18,18,17,0.139,-1.5,-0.2,-2.4,9.91,8.8,66,17,13.1,0.00230,0.00319,37.1,35.8,12,469,0,.,7.12,0.00,0.00
15min,AgWx,beryljct,423,25FEB2021:16:15:00,45.2,14.03,39.3,38.9,39.1,40.3,38.3,17,18,17,0.135,-1.7,0.6,-2.9,7.059,9.1,60,15,14.1,0.00219,0.00310,37.5,35.9,12,425,0,.,7.12,0.00,0.00
15min,AgWx,beryljct,423,25FEB2021:16:30:00,45.2,14.1,40.2,39.3,39.3,40.3,38.6,17,18,16,0.141,-1.8,-0.3,-3.2,12.36,9.5,57,17,13.6,0.00208,0.00301,37.8,35.9,12,386,0,.,7.11,0.00,0.00
15min,AgWx,beryljct,423,25FEB2021:16:45:00,44.9,14.05,40.0,38.8,38.6,40.0,37.9,17,18,17,0.141,-2.2,0.0,-3.2,5.086,7.7,51,13,14.8,0.00148,0.00226,38.1,36.0,12,256,0,.,7.11,0.00,0.00
15min,AgWx,beryljct,423,25FEB2021:17:00:00,44.0,14.06,39.5,39.0,38.6,39.0,38.2,18,18,17,0.147,-1.8,-0.7,-2.7,10.17,7.6,61,14,10.3,0.00143,0.00219,38.3,36.0,12,251,0,.,7.11,0.00,0.00
15min,AgWx,beryljct,423,25FEB2021:17:15:00,43.4,13.29,37.7,37.4,38.2,39.0,37.4,18,20,18,0.148,-1.4,-0.5,-2.4,8.81,8.5,74,10,11.5,0.00117,0.00196,38.5,36.1,12,158,0,.,7.11,0.00,0.00
15min,AgWx,beryljct,423,25FEB2021:17:30:00,41.7,13.27,37.3,37.1,37.3,37.5,37.0,19,20,18,0.150,-0.9,-0.2,-1.7,7.651,8.1,61,12,12.1,0.00048,0.00058,38.6,36.2,12,87,0,.,7.12,0.00,0.00
15min,AgWx,beryljct,423,25FEB2021:17:45:00,40.4,13.31,37.0,36.7,37.0,37.1,36.7,21,22,20,0.156,0.7,1.7,-0.4,10.46,8.6,68,8.5,11.7,0.00049,0.00058,38.7,36.3,12,94,0,.,7.12,0.00,0.00
15min,AgWx,beryljct,423,25FEB2021:18:00:00,39.4,13.21,36.1,35.9,36.3,36.8,35.8,22,23,21,0.167,1.4,2.1,0.5,8.88,8.5,70,8.0,11.8,0.00045,0.00055,38.8,36.3,12,80,0,.,7.12,0.00,0.00
15min,AgWx,beryljct,423,25FEB2021:18:15:00,38.4,13.07,34.9,34.6,35.3,35.9,34.6,24,24,23,0.163,1.9,2.3,1.4,7.958,7.4,67,9.8,11.2,0.00035,0.00043,38.7,36.4,12,25,0,.,7.12,0.00,0.00
15min,AgWx,beryljct,423,25FEB2021:18:30:00,36.9,13.01,33.0,32.6,33.6,34.7,32.6,25,26,24,0.161,1.5,1.9,1.3,5.261,5.8,63,7.0,10.0,0.00025,0.00033,38.7,36.5,12,6,0,.,7.12,0.00,0.00
15min,AgWx,beryljct,423,25FEB2021:18:45:00,35.3,12.96,32.0,31.5,32.0,32.7,31.5,26,27,26,0.162,1.3,1.5,1.2,3.858,4.2,46,6.8,6.3,0.00015,0.00021,38.6,36.6,12,1,0,.,7.12,0.00,0.00
15min,AgWx,beryljct,423,25FEB2021:19:00:00,33.9,12.94,32.0,31.5,31.4,31.9,31.2,27,27,26,0.157,1.1,1.6,0.6,4.297,3.5,35,22,5.5,0.00011,0.00016,38.5,36.7,12,0,0,.,7.12,0.00,0.00
15min,AgWx,beryljct,423,25FEB2021:19:15:00,33.0,12.94,29.6,29.2,31.0,32.0,29.2,27,30,25,0.161,0.7,1.4,0.3,4.494,4.2,354,14,5.7,0.00015,0.00021,38.3,36.7,12,0,0,.,7.12,0.00,0.00
15min,AgWx,beryljct,423,25FEB2021:19:30:00,32.0,12.91,29.4,29.7,29.2,30.0,28.7,29,31,28,0.161,1.2,1.6,0.8,3.442,3.8,330,7.9,5.2,0.00011,0.00016,38.2,36.8,12,0,0,.,7.12,0.00,0.00
15min,AgWx,beryljct,423,25FEB2021:19:45:00,31.3,12.91,31.4,30.4,30.0,30.4,29.4,29,30,28,0.160,1.4,2.2,0.8,3.288,3.1,315,13,4.6,0.00007,0.00011,38.0,36.8,12,0,0,.,7.12,0.00,0.00
15min,AgWx,beryljct,423,25FEB2021:20:00:00,30.7,12.9,30.1,28.4,29.6,30.5,28.4,30,33,28,0.173,1.7,2.9,0.9,6.752,3.9,318,7.5,6.8,0.00011,0.00017,37.8,36.9,12,0,0,.,7.12,0.00,0.00
15min,AgWx,beryljct,423,25FEB2021:20:15:00,30.2,12.88,27.3,27.1,28.0,29.0,26.6,33,36,31,0.175,2.5,3.0,2.1,6.16,6.4,310,4.2,7.9,0.00019,0.00024,37.6,37.0,12,0,0,.,7.12,0.00,0.00
15min,AgWx,beryljct,423,25FEB2021:20:30:00,29.4,12.88,27.7,27.2,27.3,28.0,26.9,33,35,32,0.168,2.3,2.8,1.9,6.664,6.2,302,4.5,8.3,0.00018,0.00023,37.4,37.0,12,0,0,.,7.12,0.00,0.00
15min,AgWx,beryljct,423,25FEB2021:20:45:00,28.8,12.87,26.6,26.5,26.7,27.4,26.2,35,37,33,0.176,2.6,3.5,1.9,5.152,5.1,310,8.1,7.6,0.00014,0.00019,37.2,37.1,12,0,0,.,7.12,0.00,0.00
15min,AgWx,beryljct,423,25FEB2021:21:00:00,28.3,12.86,25.7,25.8,27.1,28.4,25.8,34,36,31,0.172,2.3,3.2,1.6,1.776,3.8,313,10,5.9,0.00009,0.00014,37.0,37.1,12,0,0,.,7.12,0.00,0.00
15min,AgWx,beryljct,423,25FEB2021:21:15:00,27.3,12.85,25.5,24.8,25.1,26.1,24.0,38,40,37,0.175,3.2,3.5,2.8,1.118,1.1,276,9.2,2.1,-0.00010,-0.00013,36.8,37.1,12,0,0,.,7.12,0.00,0.00
15min,AgWx,beryljct,423,25FEB2021:21:30:00,26.1,12.83,22.2,21.9,23.5,25.2,21.9,40,44,37,0.178,2.9,3.4,2.6,0.702,1.7,275,12,3.3,-0.00004,-0.00004,36.6,37.2,12,0,0,.,7.13,0.00,0.00
15min,AgWx,beryljct,423,25FEB2021:21:45:00,24.9,12.84,22.5,21.8,22.5,23.6,21.7,43,44,41,0.171,3.2,3.6,2.6,3.836,2.3,289,10,3.9,-0.00001,0.00000,36.4,37.2,12,0,0,.,7.13,0.00,0.00
15min,AgWx,beryljct,423,25FEB2021:22:00:00,23.7,12.83,20.5,20.6,20.6,22.0,19.5,46,48,43,0.175,3.0,3.8,2.2,1.381,3.7,258,5.5,5.3,0.00004,0.00007,36.3,37.2,13,0,0,.,7.13,0.00,0.00
15min,AgWx,beryljct,423,25FEB2021:22:15:00,22.8,12.8,20.2,20.1,21.1,22.4,20.1,45,47,42,0.173,3.0,3.6,2.3,0.526,2.4,272,14,4.2,-0.00001,0.00000,36.1,37.2,12,0,0,.,7.13,0.00,0.00
15min,AgWx,beryljct,423,25FEB2021:22:30:00,21.9,12.79,18.7,18.9,20.4,21.3,18.9,45,47,43,0.163,2.6,3.4,1.3,3.573,2.0,190,18,3.6,-0.00003,-0.00003,35.9,37.2,12,0,0,.,7.13,0.00,0.00
15min,AgWx,beryljct,423,25FEB2021:22:45:00,21.0,12.8,18.3,17.2,17.0,19.3,15.1,50,56,46,0.160,1.5,4.2,0.6,3.705,3.8,168,23,6.0,0.00003,0.00005,35.8,37.2,12,0,0,.,7.13,0.00,0.00
15min,AgWx,beryljct,423,25FEB2021:23:00:00,20.0,12.79,15.7,15.0,16.0,17.6,14.8,49,52,47,0.153,0.3,1.4,-0.5,2.938,3.3,192,13,4.8,0.00002,0.00003,35.6,37.2,12,0,0,.,7.13,0.00,0.00
15min,AgWx,beryljct,423,25FEB2021:23:15:00,18.9,12.78,16.8,15.7,15.1,16.0,14.0,54,57,50,0.166,1.3,2.2,0.2,2.674,2.6,185,19,4.1,-0.00001,-0.00001,35.5,37.2,12,0,0,.,7.13,0.00,0.00
15min,AgWx,beryljct,423,25FEB2021:23:30:00,17.9,12.77,15.0,14.3,14.1,16.4,12.0,56,60,52,0.163,1.1,2.9,-1.1,1.951,2.3,177,29,3.1,-0.00003,-0.00002,35.4,37.1,12,0,0,.,7.13,0.00,0.00
15min,AgWx,bigpiney,439,25FEB2021:00:00:00,4.9,12.6,-1.0,-1.0,-1.3,-0.2,-2.1,77,78,75,0.108,-6.8,-5.6,-7.6,5.48,3.8,211,7.2,5.5,-0.00001,-0.00001,25.9,28.2,8,0,0,0.0,0.19,0.00,0.00
15min,AgWx,bigpiney,439,25FEB2021:00:15:00,3.8,12.59,1.2,0.1,-1.1,0.5,-2.3,76,79,74,0.116,-6.8,-4.5,-8.0,0.044,3.1,271,51,5.4,-0.00001,-0.00001,25.7,28.3,8,0,0,0.0,0.19,0.00,0.00
15min,AgWx,bigpiney,439,25FEB2021:00:30:00,3.0,12.57,3.9,2.9,1.2,3.0,0.2,74,76,71,0.123,-5.1,-4.0,-5.9,1.337,0.5,184,22,2.6,-0.00007,-0.00009,25.6,28.2,8,0,0,0.0,0.19,0.00,0.00
15min,AgWx,bigpiney,439,25FEB2021:00:45:00,2.5,12.57,4.3,3.7,3.8,4.1,2.9,68,71,67,0.121,-4.3,-3.9,-4.9,4.209,3.7,280,17,6.7,0.00000,0.00001,25.4,28.1,9,0,0,0.0,0.19,0.00,0.00
15min,AgWx,bigpiney,439,25FEB2021:01:00:00,2.5,12.56,1.3,0.5,0.9,3.8,-1.4,71,75,67,0.112,-6.4,-4.6,-8.7,0.986,2.0,280,37,6.2,-0.00002,-0.00003,25.2,28.1,9,0,0,0.0,0.19,0.00,0.00
15min,AgWx,bigpiney,439,25FEB2021:01:15:00,2.2,12.55,4.3,2.2,0.9,2.2,0.2,71,73,69,0.118,-6.3,-5.3,-7.3,4.187,1.9,240,44,4.2,-0.00003,-0.00003,25.1,28.1,8,0,0,0.0,0.19,0.00,0.00
15min,AgWx,bigpiney,439,25FEB2021:01:30:00,1.9,12.54,-3.8,-0.4,0.9,3.1,-1.0,71,75,67,0.110,-6.3,-4.8,-7.7,1.074,2.7,318,36,4.3,-0.00001,-0.00001,24.9,28.0,8,0,0,0.0,0.19,0.00,0.00
15min,AgWx,bigpiney,439,25FEB2021:01:45:00,1.4,12.53,0.7,-1.4,-1.5,-0.5,-2.4,75,77,73,0.106,-7.4,-6.4,-8.2,1.403,1.8,109,27,3.0,-0.00003,-0.00004,24.7,28.0,8,0,0,0.0,0.19,0.00,0.00
15min,AgWx,bigpiney,439,25FEB2021:02:00:00,0.8,12.52,-3.0,-3.9,-2.4,0.1,-4.3,74,75,72,0.093,-8.7,-6.1,-10.6,2.105,3.7,43,29,5.2,-0.00001,-0.00000,24.6,28.0,8,0,0,0.0,0.19,0.00,0.00
15min,AgWx,bigpiney,439,25FEB2021:02:15:00,0.0,12.49,-3.5,-3.9,-3.6,-3.3,-3.9,74,75,73,0.094,-9.8,-9.5,-10.1,1.754,0.9,321,29,2.1,-0.00004,-0.00006,24.4,27.9,8,0,0,0.0,0.19,0.00,0.00
15min,AgWx,bigpiney,439,25FEB2021:02:30:00,-0.7,12.49,-4.6,-5.2,-4.7,-3.9,-5.3,76,77,75,0.090,-10.4,-9.7,-10.8,1.995,2.4,269,7.6,3.6,-0.00002,-0.00002,24.2,27.9,8,0,0,0.0,0.19,0.00,0.00
15min,AgWx,bigpiney,439,25FEB2021:02:45:00,-1.4,12.47,-0.7,-1.5,-2.8,-1.5,-5.2,75,78,73,0.103,-8.7,-7.7,-10.7,1.008,1.6,232,33,2.8,-0.00003,-0.00004,24.0,27.8,8,0,0,0.0,0.19,0.00,0.00
15min,AgWx,bigpiney,439,25FEB2021:03:00:00,-2.0,12.47,-2.8,-3.6,-2.6,-1.4,-3.9,73,74,72,0.093,-9.2,-7.9,-10.6,0.044,1.3,171,20,2.5,-0.00004,-0.00004,23.8,27.7,8,0,0,0.0,0.19,0.00,0.00
15min,AgWx,bigpiney,439,25FEB2021:03:15:00,-2.6,12.46,-2.1,-2.5,-2.5,-2.1,-3.7,74,74,73,0.100,-8.8,-8.4,-10.2,2.083,0.8,85,11,2.2,-0.00005,-0.00006,23.7,27.7,8,0,0,0.0,0.19,0.00,0.00
15min,AgWx,bigpiney,439,25FEB2021:03:30:00,-2.9,12.44,-4.3,-4.6,-3.2,-2.6,-4.6,75,76,74,0.092,-9.1,-8.7,-10.3,0,1.6,92,6.1,2.9,-0.00003,-0.00004,23.5,27.6,8,0,0,0.0,0.19,0.00,0.00
15min,AgWx,bigpiney,439,25FEB2021:03:45:00,-3.3,12.43,-4.1,-5.3,-5.3,-4.7,-5.9,79,80,76,0.095,-10.2,-9.8,-10.6,0,0.2,257,4.8,1.7,-0.00006,-0.00009,23.3,27.6,8,0,0,0.0,0.19,0.00,0.00
15min,AgWx,bigpiney,439,25FEB2021:04:00:00,-3.7,12.42,-6.5,-7.0,-5.0,-4.5,-7.1,80,81,77,0.083,-9.7,-9.1,-12.5,1.293,1.1,278,21,2.4,-0.00004,-0.00005,23.1,27.5,8,0,0,0.0,0.19,0.00,0.00
15min,AgWx,bigpiney,439,25FEB2021:04:15:00,-4.3,12.41,-5.8,-8.8,-7.1,-5.7,-9.0,79,81,77,0.077,-11.8,-10.0,-14.0,1.863,2.4,229,5.0,4.0,-0.00002,-0.00002,23.0,27.5,8,0,0,0.0,0.19,0.00,0.00
15min,AgWx,bigpiney,439,25FEB2021:04:30:00,-5.1,12.41,-6.5,-7.1,-7.8,-6.4,-10.2,80,83,77,0.087,-12.4,-10.5,-15.4,0,0.4,219,7.3,2.4,-0.00005,-0.00007,22.8,27.4,8,0,0,0.0,0.19,0.00,0.00
15min,AgWx,bigpiney,439,25FEB2021:04:45:00,-5.9,12.4,-4.9,-5.9,-6.9,-5.9,-7.9,80,81,79,0.092,-11.4,-10.3,-12.9,0,0.3,213,4.4,1.9,-0.00005,-0.00008,22.6,27.4,8,0,0,0.0,0.19,0.00,0.00
15min,AgWx,bigpiney,439,25FEB2021:05:00:00,-6.5,12.39,-5.4,-6.5,-6.6,-5.7,-7.4,81,83,79,0.092,-10.9,-10.1,-11.8,2.565,0.8,310,7.9,2.6,-0.00004,-0.00006,22.4,27.3,8,0,0,0.0,0.19,0.00,0.00
15min,AgWx,bigpiney,439,25FEB2021:05:15:00,-6.8,12.38,-10.7,-10.7,-7.9,-6.1,-10.9,81,83,79,0.074,-12.1,-10.0,-15.3,0,1.4,337,11,2.9,-0.00003,-0.00004,22.3,27.1,8,0,0,0.0,0.19,0.00,0.00
15min,AgWx,bigpiney,439,25FEB2021:05:30:00,-7.2,12.37,-6.4,-8.0,-9.0,-7.6,-11.2,84,85,82,0.086,-12.6,-11.1,-15.2,0,0.3,202,3.5,1.4,-0.00005,-0.00007,22.1,27.1,8,0,0,0.0,0.19,0.00,0.00
15min,AgWx,bigpiney,439,25FEB2021:05:45:00,-7.6,12.38,-7.0,-7.8,-8.1,-7.3,-9.7,83,84,80,0.086,-12.0,-11.0,-14.0,3.135,2.5,216,11,3.8,-0.00002,-0.00002,21.9,27.0,8,0,0,0.0,0.19,0.00,0.00
15min,AgWx,bigpiney,439,25FEB2021:06:00:00,-8.1,12.35,-12.0,-7.9,-7.0,-6.1,-9.4,81,83,77,0.083,-11.2,-10.2,-14.6,2.806,2.2,225,6.2,3.4,-0.00002,-0.00003,21.7,26.9,8,0,0,0.0,0.19,0.00,0.00
15min,AgWx,bigpiney,439,25FEB2021:06:15:00,-8.7,12.36,-4.4,-5.6,-7.9,-5.6,-9.9,81,82,77,0.095,-12.3,-9.7,-15.1,1.688,2.2,229,7.1,3.5,-0.00002,-0.00002,21.5,27.0,8,0,0,0.0,0.19,0.00,0.00
15min,AgWx,bigpiney,439,25FEB2021:06:30:00,-9.1,12.34,-5.8,-6.5,-6.5,-5.3,-7.5,80,82,78,0.088,-11.1,-9.5,-12.6,1.907,2.4,196,14,3.1,-0.00002,-0.00002,21.4,26.8,8,0,0,0.0,0.19,0.00,0.00
15min,AgWx,bigpiney,439,25FEB2021:06:45:00,-9.6,12.35,-13.7,-13.8,-11.7,-6.5,-13.8,76,80,74,0.060,-17.1,-11.1,-19.1,3.771,4.3,209,12,6.1,-0.00000,0.00000,21.2,26.7,8,0,0,0.0,0.19,0.00,0.00
15min,AgWx,bigpiney,439,25FEB2021:07:00:00,-10.2,12.37,-13.3,-13.4,-13.0,-12.5,-13.9,78,79,77,0.061,-17.9,-17.3,-19.1,0,2.3,216,28,4.3,-0.00001,-0.00001,21.0,26.6,8,2,0,0.0,0.19,0.00,0.00
15min,AgWx,bigpiney,439,25FEB2021:07:15:00,-10.5,14.34,-11.1,-12.2,-13.3,-12.1,-14.2,80,81,77,0.068,-17.8,-16.3,-19.3,0,0.7,14,7.9,2.3,-0.00002,-0.00003,20.8,26.6,8,20,0,0.0,0.19,0.00,0.00
15min,AgWx,bigpiney,439,25FEB2021:07:30:00,-10.6,15,-10.7,-12.1,-12.5,-11.8,-13.2,80,81,79,0.068,-17.0,-16.2,-17.9,0,0.2,219,9.2,1.6,-0.00004,-0.00004,20.6,26.5,8,53,0,0.0,0.19,0.00,0.00
15min,AgWx,bigpiney,439,25FEB2021:07:45:00,-9.9,14.99,-10.4,-11.6,-12.4,-11.6,-13.2,80,81,79,0.070,-16.8,-15.8,-17.8,1.82,1.3,231,17,2.3,0.00001,0.00002,20.5,26.4,8,87,0,0.0,0.19,0.00,0.00
15min,AgWx,bigpiney,439,25FEB2021:08:00:00,-8.7,14.99,-7.2,-8.1,-10.0,-8.1,-11.5,81,82,79,0.081,-14.4,-12.7,-15.7,0.789,1.9,242,31,3.5,0.00006,0.00007,20.3,26.4,8,124,0,0.0,0.19,0.00,0.00
15min,AgWx,bigpiney,439,25FEB2021:08:15:00,-6.8,14.98,-5.8,-6.6,-7.3,-6.6,-8.1,78,79,78,0.086,-12.3,-11.8,-12.8,0.46,1.2,0.7,18,2.2,0.00012,0.00013,20.2,26.1,8,163,0,0.0,0.19,0.00,0.00
15min,AgWx,bigpiney,439,25FEB2021:08:30:00,-4.4,14.97,-4.1,-5.2,-5.8,-5.1,-6.6,77,78,77,0.091,-11.1,-10.5,-11.8,0,0.7,12,12,1.8,0.00018,0.00020,20.1,26.2,8,202,0,0.0,0.19,0.00,0.00
15min,AgWx,bigpiney,439,25FEB2021:08:45:00,-1.7,14.94,-4.3,-5.1,-5.2,-4.7,-5.4,77,78,76,0.090,-10.7,-9.8,-11.1,2.126,1.9,5.9,18,3.7,0.00024,0.00027,20.0,26.0,8,241,0,0.0,0.19,0.00,0.00
15min,AgWx,bigpiney,439,25FEB2021:09:00:00,1.0,14.89,-1.5,-2.0,-3.5,-1.8,-5.0,75,76,74,0.104,-9.4,-7.6,-10.7,2.17,1.3,67,16,2.6,0.00032,0.00036,20.0,26.0,8,282,0,0.0,0.19,0.00,0.00